Weather History for Holloman AFB, NM

Change the Weather History Date:

Thursday, March 7, 2013

  Actual Average Record
Temperature  
Mean Temperature 58 °F -  
Max Temperature 78 °F 63 °F 78 °F (2013)
Min Temperature 37 °F 34 °F 21 °F (2008)
Degree Days  
Heating Degree Days 8    
Growing Degree Days 8 (Base 50)    
Moisture  
Dew Point 18 °F    
Average Humidity 20    
Maximum Humidity 42    
Minimum Humidity 8    
Precipitation  
Precipitation 0.00 in - - ()
Sea Level Pressure  
Sea Level Pressure 29.86 in    
Wind  
Wind Speed 8 mph (South)    
Max Wind Speed 16 mph    
Max Gust Speed 26 mph    
Visibility 10 miles    
Events      
Averages and records for this station are not official NWS values.
T = Trace of Precipitation, MM = Missing Value Source: NWS Daily Summary

Daily Weather History Graph

Daily Weather History Graph

Search for Another Location

Airport:

Trip Planner

Search our weather history database for the weather conditions in past years. The results will help you decide how hot, cold, wet, or windy it might be!

Date:

Astronomy

Mar. 07, 2013 Rise Set
Actual Time 6:24 AM MST 6:06 PM MST
Civil Twilight 5:59 AM MST 6:31 PM MST
Nautical Twilight 5:31 AM MST 6:59 PM MST
Astronomical Twilight 5:02 AM MST 7:28 PM MST
Moon 3:15 AM MST (3/7) 2:08 PM MST (3/7)
Length of Visible Light 12h 31m
Length of Day
11h 42m
Waning Crescent, 19% of the Moon is Illuminated
Mar 7
Waning Crescent
Mar 11
New
Mar 19
First Quarter
Mar 27
Full
Apr 2
Last Quarter

Hourly Weather History & Observations

Time (MST) Temp. Windchill Dew Point Humidity Pressure Visibility Wind Dir Wind Speed Gust Speed Precip Events Conditions
12:58 AM 53.6 °F - 22.3 °F 30% 29.85 in 10.0 mi South 10.4 mph - N/A   Clear
1:58 AM 52.9 °F - 21.7 °F 30% 29.84 in 10.0 mi South 12.7 mph - N/A   Clear
2:58 AM 49.1 °F - 21.0 °F 33% 29.84 in 10.0 mi WNW 1.2 mph - N/A   Clear
3:58 AM 44.1 °F 42.5 °F 19.6 °F 38% 29.86 in 10.0 mi NNW 3.5 mph - N/A   Clear
4:58 AM 39.2 °F 34.2 °F 17.8 °F 42% 29.88 in 10.0 mi NNE 6.9 mph - N/A   Clear
5:58 AM 37.9 °F - 15.4 °F 40% 29.91 in 10.0 mi NE 2.3 mph - N/A   Clear
6:58 AM 39.7 °F - 16.5 °F 39% 29.94 in 10.0 mi Calm Calm - N/A   Clear
7:58 AM 48.9 °F - 20.3 °F 32% 29.95 in 10.0 mi NW 4.6 mph - N/A   Clear
8:58 AM 55.9 °F - 22.6 °F 28% 29.95 in 9.0 mi WNW 3.5 mph - N/A   Clear
9:58 AM 63.0 °F - 23.0 °F 22% 29.91 in 10.0 mi Calm Calm - N/A   Clear
10:58 AM 69.4 °F - 23.5 °F 18% 29.90 in 10.0 mi South 6.9 mph - N/A   Clear
11:58 AM 73.4 °F - 23.4 °F 15% 29.86 in 10.0 mi SSE 5.8 mph - N/A   Clear
12:58 PM 74.7 °F - 22.8 °F 14% 29.82 in 10.0 mi ESE 2.3 mph - N/A   Clear
1:58 PM 77.2 °F - 21.2 °F 12% 29.77 in 10.0 mi SSE 12.7 mph 20.7 mph N/A   Clear
2:34 PM 78.8 °F - 17.6 °F 10% 29.92 in 10.0 mi South 13.8 mph 23.0 mph N/A   Clear
2:58 PM 77.2 °F - 14.5 °F 9% 29.74 in 10.0 mi South 13.8 mph 19.6 mph N/A   Clear
3:27 PM 77.0 °F - 12.2 °F 9% 29.90 in 10.0 mi SSW 12.7 mph 17.3 mph N/A   Clear
3:28 PM 77.0 °F - 12.2 °F 9% 29.90 in 10.0 mi South 12.7 mph 17.3 mph N/A   Clear
3:58 PM 75.9 °F - 13.1 °F 9% 29.77 in 10.0 mi South 15.0 mph - N/A   Clear
4:58 PM 75.4 °F - 10.4 °F 8% 29.79 in 10.0 mi SSW 16.1 mph 26.5 mph N/A   Clear
5:02 PM 75.2 °F - 10.4 °F 8% 29.91 in 10.0 mi SW 12.7 mph 26.5 mph N/A   Clear
5:58 PM 70.5 °F - 13.8 °F 11% 29.82 in 10.0 mi SSW 10.4 mph - N/A   Clear
6:58 PM 65.3 °F - 15.3 °F 14% 29.83 in 10.0 mi South 10.4 mph - N/A   Clear
7:58 PM 63.1 °F - 16.5 °F 16% 29.83 in 10.0 mi SSW 8.1 mph - N/A   Clear
8:58 PM 59.5 °F - 16.3 °F 19% 29.83 in 10.0 mi SE 9.2 mph - N/A   Clear
9:58 PM 59.4 °F - 16.2 °F 19% 29.82 in 10.0 mi SE 8.1 mph - N/A   Clear
10:58 PM 57.2 °F - 16.2 °F 20% 29.83 in 10.0 mi SSE 8.1 mph - N/A   Clear
11:58 PM 58.1 °F - 16.3 °F 20% 29.83 in 10.0 mi SE 9.2 mph - N/A   Partly Cloudy